Vorticity
7 5 14 20 14 7 6 6 4 3 3 4 5 7 8 5 7 6 5 6 3 9 23 18 21 30 28
3 24 4 7 6 5 4 4 4 5 5 7 5 5 6 6 4 7 2 8 25 20 23 32 29 43 45
20 7 6 5 4 6 4 5 4 5 6 6 6 5 5 6 4 8 23 20 24 33 31 42 40 28 13
4 6 5 4 5 5 4 6 5 7 7 5 4 6 6 5 21 21 20 26 29 31 43 29 14 8 11
5 4 4 3 6 4 4 6 5 5 2 6 5 4 11 19 21 20 27 25 31 41 23 8 8 13 15
4 3 4 5 6 6 7 3 3 4 6 3 5 17 22 18 21 21 21 34 41 20 9 7 11 16 17
4 6 4 6 6 6 7 6 6 4 3 8 22 24 23 21 18 18 27 40 17 8 7 9 12 17 9
6 5 6 5 6 6 3 5 3 4 6 28 20 25 23 18 13 17 37 28 11 7 10 11 16 11 7
6 5 7 6 6 3 6 4 3 11 14 32 25 23 19 14 18 17 31 24 7 12 11 16 14 7 7
8 8 6 5 4 7 3 3 6 24 16 27 25 17 13 17 24 16 19 13 8 14 19 15 8 7 8
6 5 5 5 5 4 5 6 17 28 21 23 23 12 14 15 30 17 14 9 10 17 18 10 8 8 9
5 4 5 5 6 5 8 16 28 27 24 17 10 12 15 10 29 16 12 11 9 18 13 8 6 6 7
4 6 4 5 3 5 14 25 29 21 17 9 6 13 18 13 29 19 10 13 10 14 11 7 5 6 10
5 4 5 7 7 10 21 27 24 16 7 7 7 17 21 11 20 17 18 11 11 14 11 9 7 8 10
6 6 6 9 5 17 24 22 15 12 8 14 10 24 13 15 17 18 15 10 14 11 12 13 8 8 10
7 7 8 7 13 26 18 13 15 14 15 11 7 23 12 23 18 15 20 8 9 12 10 12 9 6 10
7 6 8 12 22 17 11 13 14 18 17 15 19 18 12 20 14 15 14 15 8 11 8 10 9 8 8
Height
5706 5703 5699 5694 5690 5687 5681 5676 5671 5666 5659 5652 5646 5637 5629 5620 5611 5602 5590 5578 5566 5552 5535 5520 5508 5496 5488
5696 5692 5689 5685 5681 5675 5669 5663 5657 5651 5644 5636 5628 5619 5610 5600 5590 5577 5563 5549 5534 5518 5504 5493 5482 5474 5467
5684 5680 5677 5673 5669 5663 5656 5649 5642 5636 5627 5618 5609 5600 5590 5578 5566 5551 5533 5517 5504 5490 5479 5470 5462 5458 5455
5674 5671 5666 5663 5658 5652 5643 5635 5627 5619 5610 5599 5589 5576 5565 5554 5539 5520 5504 5490 5478 5467 5459 5455 5451 5448 5444
5663 5659 5656 5651 5645 5637 5631 5622 5611 5605 5594 5577 5567 5552 5537 5522 5508 5493 5480 5469 5458 5451 5447 5444 5441 5438 5434
5652 5647 5643 5638 5630 5623 5615 5608 5600 5586 5581 5559 5544 5525 5508 5496 5485 5472 5461 5450 5444 5440 5438 5435 5431 5428 5425
5640 5636 5630 5624 5617 5609 5600 5591 5580 5569 5562 5545 5521 5501 5484 5474 5463 5453 5446 5438 5434 5432 5429 5425 5422 5419 5416
5628 5623 5616 5609 5601 5593 5586 5577 5564 5545 5533 5521 5499 5484 5467 5454 5446 5439 5434 5429 5426 5423 5420 5416 5413 5411 5408
5615 5608 5600 5593 5585 5577 5568 5558 5545 5526 5507 5496 5481 5472 5459 5442 5431 5424 5423 5421 5419 5415 5411 5407 5404 5402 5399
5600 5594 5586 5577 5569 5560 5550 5536 5521 5508 5489 5480 5466 5455 5453 5440 5424 5414 5412 5410 5409 5406 5402 5398 5395 5393 5391
5588 5581 5570 5562 5552 5540 5526 5512 5498 5484 5469 5460 5454 5444 5434 5428 5419 5409 5405 5402 5398 5395 5392 5390 5387 5385 5383
5574 5564 5555 5544 5532 5520 5505 5490 5474 5464 5455 5445 5440 5432 5424 5417 5410 5403 5397 5393 5389 5386 5384 5381 5378 5376 5373
5558 5549 5539 5527 5514 5501 5485 5470 5457 5446 5439 5434 5428 5420 5412 5405 5400 5394 5391 5387 5381 5377 5374 5372 5369 5366 5363
5545 5535 5522 5509 5494 5480 5468 5457 5448 5437 5426 5420 5414 5407 5401 5393 5388 5384 5380 5378 5374 5369 5366 5363 5359 5356 5354
5527 5517 5505 5491 5476 5463 5453 5445 5436 5428 5418 5406 5400 5395 5388 5382 5377 5370 5369 5367 5364 5361 5358 5355 5350 5347 5345
5510 5498 5485 5472 5461 5450 5440 5431 5422 5413 5405 5397 5391 5384 5377 5369 5363 5360 5357 5356 5354 5352 5348 5347 5342 5336 5336
5491 5479 5469 5457 5446 5436 5426 5415 5407 5398 5389 5382 5377 5373 5370 5364 5358 5347 5348 5344 5343 5341 5338 5336 5335 5330 5326